User: anonymous   Login
Location: Unspecified
(0.0000°N, 0.0000°E)
Time: 17:27:20
(UTC+00:00)
Language:

S-56A Canister/Altair - Orbit

View from above orbital plane
View from above orbital plane
View from above satellite
View from above satellite

Ground track
Ground track

The orbit data is extracted from the following two-line orbital elements,

1 00082U 61004B   17227.52457571  .00000079  00000-0  11225-3 0  9996
2 00082  38.8542  77.5003 1170696 119.7714 252.4552 12.25857299680542
Epoch (UTC): 15 August 2017 12:35:23
Eccentricity: 0.1170696
inclination: 38.8542°
perigee height: 637 km
apogee height: 2497 km
right ascension of ascending node: 77.5003°
argument of perigee: 119.7714°
revolutions per day: 12.25857299
mean anomaly at epoch: 252.4552°
orbit number at epoch: 68054

The dashed part of the orbit path shows where the satellite is in the earth's shadow,  

DLR